📊 Raw Sensor Data

Showing records 49101 to 49125 of 85,113 total

ID Distance (ft) Battery V Battery A Int Temp (°F) Int Humid (%) Ext Temp (°F) Solar V RSSI SNR Time Stamp
36025 -- 4.00 -5 71 46 72 0.00 -84 8 03/25/2025 08:00 PM
36024 15.3 4.05 -5 72 47 73 0.00 -83 7 03/25/2025 07:45 PM
36023 15.3 4.00 -5 75 48 74 0.90 -82 8 03/25/2025 07:30 PM
36022 15.3 3.99 -14 79 47 77 3.40 -82 7 03/25/2025 07:15 PM
36021 -- 4.01 0 82 47 79 4.50 -82 9 03/25/2025 07:01 PM
36020 -- 4.07 5 85 46 79 4.50 -83 9 03/25/2025 06:45 PM
36019 -- 4.11 0 88 44 82 4.50 -84 9 03/25/2025 06:30 PM
36018 -- 4.07 32 89 44 82 4.50 -83 7 03/25/2025 06:15 PM
36017 -- 4.08 27 89 44 82 4.50 -83 8 03/25/2025 06:00 PM
36016 -- 4.09 24 90 45 82 4.50 -83 8 03/25/2025 05:46 PM
36015 -- 4.03 0 93 44 82 5.10 -83 8 03/25/2025 05:30 PM
36014 -- 4.04 0 95 44 83 5.10 -83 8 03/25/2025 05:15 PM
36013 -- 4.04 0 98 43 83 5.10 -83 8 03/25/2025 05:00 PM
36012 -- 4.03 0 102 40 89 5.10 -83 9 03/25/2025 04:45 PM
36011 -- 4.03 0 103 40 88 5.10 -83 8 03/25/2025 04:30 PM
36010 -- 4.03 0 103 39 86 5.10 -83 8 03/25/2025 04:15 PM
36009 -- 4.03 0 102 39 87 5.10 -83 8 03/25/2025 04:00 PM
36008 -- 4.04 0 101 39 85 5.10 -83 8 03/25/2025 03:45 PM
36007 -- 4.10 0 101 38 85 5.10 -83 8 03/25/2025 03:30 PM
36006 -- 4.03 0 101 37 85 5.10 -81 7 03/25/2025 03:15 PM
36005 -- 4.03 0 99 37 82 5.10 -82 7 03/25/2025 03:00 PM
36004 -- 4.03 0 99 37 81 5.10 -82 8 03/25/2025 02:45 PM
36003 -- 4.03 0 98 36 84 5.10 -82 9 03/25/2025 02:30 PM
36002 -- 4.03 0 97 36 83 5.10 -82 8 03/25/2025 02:15 PM
36001 -- 4.03 0 95 36 80 5.10 -82 9 03/25/2025 02:00 PM